Total_Precipitation_Accumulation
0.00 0.00 0.00 0.00 0.00 0.00 0.00 0.00 0.00 0.00 0.00 0.00 0.00 0.00 0.00 0.00 0.00 0.00 0.00 0.00 0.00 0.00 0.00 0.00 0.00 0.00 0.00 0.00 0.00 0.01 0.01 0.03 0.05 0.08 0.09 0.07 0.07 0.04 0.03 0.07 0.15 0.09 0.05 0.03
0.00 0.00 0.00 0.00 0.00 0.00 0.00 0.00 0.00 0.00 0.00 0.00 0.00 0.00 0.00 0.00 0.00 0.00 0.00 0.00 0.00 0.00 0.00 0.00 0.00 0.00 0.00 0.00 0.00 0.01 0.04 0.06 0.03 0.03 0.07 0.12 0.22 0.20 0.12 0.16 0.23 0.18 0.07 0.02
0.00 0.00 0.00 0.00 0.00 0.00 0.00 0.00 0.00 0.00 0.00 0.00 0.00 0.00 0.00 0.00 0.00 0.00 0.00 0.00 0.00 0.00 0.00 0.00 0.00 0.00 0.00 0.00 0.00 0.01 0.02 0.08 0.10 0.16 0.17 0.17 0.25 0.12 0.05 0.01 0.04 0.19 0.23 0.13
0.00 0.00 0.00 0.00 0.00 0.00 0.00 0.00 0.00 0.00 0.00 0.00 0.00 0.00 0.00 0.00 0.00 0.00 0.00 0.00 0.00 0.00 0.00 0.00 0.00 0.00 0.00 0.00 0.01 0.03 0.05 0.14 0.37 0.39 0.28 0.18 0.17 0.10 0.10 0.11 0.13 0.24 0.30 0.24
0.00 0.00 0.00 0.00 0.00 0.00 0.00 0.00 0.00 0.00 0.00 0.00 0.00 0.02 0.00 0.00 0.00 0.00 0.01 0.00 0.00 0.00 0.00 0.00 0.00 0.00 0.02 0.07 0.13 0.21 0.29 0.32 0.44 0.48 0.40 0.41 0.32 0.22 0.17 0.14 0.14 0.17 0.13 0.11
0.00 0.00 0.00 0.00 0.00 0.00 0.00 0.00 0.00 0.00 0.02 0.07 0.00 0.06 0.01 0.00 0.00 0.01 0.00 0.00 0.00 0.00 0.00 0.00 0.00 0.00 0.11 0.23 0.27 0.37 0.38 0.37 0.44 0.44 0.44 0.47 0.49 0.49 0.31 0.19 0.17 0.18 0.15 0.11
0.00 0.00 0.00 0.00 0.00 0.01 0.04 0.09 0.22 0.15 0.07 0.07 0.00 0.03 0.03 0.01 0.01 0.01 0.00 0.00 0.00 0.00 0.00 0.00 0.00 0.01 0.12 0.24 0.35 0.50 0.53 0.44 0.43 0.47 0.51 0.53 0.55 0.57 0.56 0.47 0.34 0.26 0.22 0.20
0.00 0.01 0.00 0.00 0.00 0.01 0.04 0.16 0.51 0.49 0.15 0.15 0.10 0.10 0.10 0.07 0.04 0.02 0.02 0.02 0.01 0.01 0.01 0.00 0.00 0.01 0.01 0.05 0.24 0.50 0.71 0.76 0.57 0.56 0.68 0.77 0.87 1.09 1.10 1.00 0.97 0.90 0.83 0.80
0.03 0.02 0.00 0.00 0.00 0.00 0.00 0.04 0.09 0.32 0.27 0.31 0.13 0.05 0.08 0.09 0.12 0.08 0.05 0.02 0.01 0.01 0.02 0.03 0.03 0.04 0.07 0.09 0.11 0.26 0.56 0.77 1.01 0.99 0.96 0.96 0.94 0.99 1.01 1.06 1.31 1.51 1.58 1.42
0.06 0.02 0.00 0.01 0.04 0.05 0.01 0.02 0.07 0.38 0.39 0.17 0.02 0.00 0.07 0.28 0.29 0.17 0.08 0.03 0.01 0.00 0.00 0.01 0.01 0.02 0.01 0.01 0.03 0.07 0.20 0.55 1.03 1.35 1.23 1.05 1.09 1.16 0.98 0.94 0.95 0.88 0.96 1.12
0.01 0.06 0.01 0.00 0.06 0.11 0.11 0.16 0.22 0.34 0.51 0.43 0.10 0.01 0.03 0.18 0.23 0.10 0.05 0.01 0.00 0.00 0.00 0.01 0.02 0.07 0.10 0.08 0.08 0.07 0.07 0.07 0.11 0.24 0.43 0.78 0.89 0.76 0.66 0.52 0.62 0.76 0.68 0.58
0.03 0.09 0.06 0.00 0.00 0.00 0.02 0.15 0.42 0.63 0.62 0.42 0.32 0.14 0.05 0.03 0.05 0.10 0.09 0.01 0.00 0.00 0.00 0.00 0.00 0.00 0.02 0.04 0.07 0.09 0.11 0.14 0.13 0.11 0.15 0.17 0.19 0.28 0.35 0.33 0.33 0.46 0.59 0.61
0.04 0.08 0.06 0.01 0.01 0.05 0.14 0.19 0.31 0.48 0.50 0.29 0.50 0.15 0.08 0.05 0.09 0.07 0.03 0.01 0.00 0.00 0.00 0.00 0.00 0.00 0.00 0.00 0.00 0.01 0.01 0.01 0.01 0.02 0.03 0.06 0.07 0.08 0.10 0.13 0.15 0.18 0.29 0.43
0.01 0.02 0.03 0.03 0.01 0.03 0.03 0.03 0.06 0.19 0.35 0.18 0.19 0.03 0.04 0.06 0.03 0.02 0.03 0.01 0.00 0.00 0.00 0.00 0.00 0.00 0.00 0.00 0.00 0.00 0.00 0.00 0.00 0.00 0.00 0.00 0.01 0.02 0.03 0.04 0.06 0.10 0.15 0.21
0.02 0.03 0.01 0.00 0.01 0.01 0.01 0.00 0.00 0.02 0.05 0.14 0.04 0.01 0.00 0.00 0.01 0.00 0.00 0.00 0.00 0.00 0.00 0.00 0.00 0.00 0.00 0.00 0.00 0.00 0.00 0.00 0.00 0.00 0.00 0.01 0.01 0.01 0.03 0.05 0.07 0.08 0.08 0.11
0.09 0.21 0.16 0.09 0.02 0.02 0.04 0.01 0.00 0.00 0.00 0.01 0.02 0.02 0.00 0.00 0.00 0.00 0.00 0.00 0.00 0.00 0.00 0.00 0.00 0.00 0.00 0.00 0.00 0.00 0.00 0.00 0.00 0.00 0.00 0.02 0.03 0.03 0.02 0.02 0.04 0.06 0.05 0.04
0.09 0.14 0.16 0.14 0.03 0.08 0.13 0.00 0.00 0.00 0.00 0.01 0.04 0.03 0.00 0.00 0.00 0.00 0.00 0.00 0.00 0.00 0.00 0.00 0.00 0.00 0.00 0.00 0.00 0.00 0.00 0.00 0.00 0.00 0.00 0.01 0.02 0.03 0.04 0.05 0.07 0.10 0.11 0.10
0.03 0.04 0.09 0.09 0.06 0.15 0.03 0.00 0.00 0.00 0.00 0.00 0.00 0.00 0.00 0.00 0.00 0.00 0.00 0.00 0.00 0.00 0.00 0.00 0.00 0.00 0.00 0.00 0.00 0.00 0.00 0.00 0.00 0.01 0.01 0.02 0.04 0.06 0.10 0.14 0.22 0.25 0.25 0.23
0.00 0.02 0.04 0.06 0.05 0.03 0.00 0.00 0.00 0.00 0.01 0.01 0.00 0.00 0.00 0.00 0.00 0.00 0.00 0.01 0.00 0.00 0.00 0.00 0.00 0.00 0.00 0.00 0.01 0.00 0.00 0.00 0.01 0.01 0.02 0.04 0.07 0.10 0.19 0.32 0.41 0.42 0.42 0.44
0.00 0.01 0.13 0.17 0.31 0.18 0.01 0.00 0.00 0.01 0.06 0.01 0.00 0.00 0.01 0.01 0.02 0.00 0.00 0.01 0.00 0.00 0.00 0.00 0.00 0.01 0.00 0.00 0.00 0.00 0.01 0.02 0.03 0.05 0.07 0.09 0.13 0.25 0.41 0.49 0.49 0.50 0.49 0.53
0.02 0.05 0.09 0.08 0.12 0.04 0.00 0.00 0.00 0.01 0.01 0.00 0.01 0.03 0.03 0.03 0.02 0.00 0.00 0.00 0.00 0.00 0.00 0.00 0.00 0.00 0.00 0.00 0.00 0.00 0.01 0.02 0.08 0.18 0.32 0.44 0.54 0.64 0.67 0.68 0.63 0.61 0.63 0.60
0.02 0.03 0.04 0.06 0.07 0.03 0.00 0.00 0.01 0.01 0.01 0.00 0.00 0.00 0.00 0.00 0.00 0.00 0.00 0.00 0.00 0.00 0.00 0.01 0.01 0.01 0.01 0.02 0.01 0.01 0.04 0.12 0.20 0.30 0.42 0.52 0.61 0.65 0.66 0.62 0.63 0.57 0.47 0.49
0.01 0.02 0.03 0.04 0.02 0.00 0.00 0.00 0.00 0.00 0.00 0.00 0.00 0.00 0.00 0.00 0.00 0.00 0.00 0.00 0.00 0.00 0.00 0.00 0.00 0.02 0.05 0.09 0.08 0.10 0.13 0.20 0.34 0.50 0.49 0.49 0.50 0.52 0.56 0.55 0.55 0.53 0.48 0.44
0.00 0.00 0.02 0.02 0.00 0.00 0.00 0.00 0.00 0.00 0.00 0.00 0.00 0.00 0.00 0.00 0.00 0.00 0.00 0.00 0.00 0.00 0.00 0.01 0.01 0.01 0.01 0.02 0.02 0.09 0.14 0.22 0.42 0.56 0.60 0.59 0.58 0.59 0.56 0.57 0.50 0.44 0.43 0.42
0.01 0.01 0.02 0.02 0.00 0.01 0.00 0.00 0.00 0.00 0.00 0.01 0.01 0.01 0.00 0.00 0.00 0.00 0.01 0.02 0.03 0.03 0.05 0.03 0.03 0.03 0.01 0.01 0.04 0.05 0.10 0.18 0.25 0.26 0.36 0.40 0.47 0.43 0.41 0.41 0.36 0.29 0.31 0.25
0.00 0.01 0.05 0.03 0.00 0.04 0.01 0.01 0.00 0.01 0.01 0.01 0.01 0.00 0.00 0.01 0.01 0.02 0.02 0.04 0.02 0.07 0.12 0.06 0.03 0.05 0.05 0.07 0.05 0.04 0.06 0.06 0.06 0.15 0.22 0.18 0.21 0.31 0.24 0.26 0.37 0.36 0.27 0.25